Burlington, IA

6:59 AM CST on December 03, 2016 (GMT -0600)
Burlington Regional

Weather History for KBRL - October, 2011

Change the Weather History Date:

Sunday, October 9, 2011

  Actual Average Record
Temperature  
Mean Temperature 68 °F 58 °F  
Max Temperature 81 °F 69 °F 90 °F (1938)
Min Temperature 55 °F 47 °F 27 °F (1945)
Degree Days  
Heating Degree Days 0 8  
Month to date heating degree days 35 63  
Since 1 July heating degree days 173 134  
Cooling Degree Days 3 1  
Month to date cooling degree days 21 12  
Year to date cooling degree days 1241 1194  
Growing Degree Days 18 (Base 50)    
Moisture  
Dew Point 51 °F    
Average Humidity 61    
Maximum Humidity 86    
Minimum Humidity 35    
Precipitation  
Precipitation 0.00 in 0.11 in 0.58 in (1993)
Month to date precipitation 0.00 0.98  
Year to date precipitation 26.12 31.75  
Sea Level Pressure  
Sea Level Pressure 30.22 in    
Wind  
Wind Speed 7 mph (SE)    
Max Wind Speed 16 mph    
Max Gust Speed 21 mph    
Visibility 10 miles    
Events      
T = Trace of Precipitation, MM = Missing Value Source: NWS Daily Summary

Daily Weather History Graph

Daily Weather History Graph

Search for Another Location

Airport or City:

Trip Planner

Search our weather history database for the weather conditions in past years. The results will help you decide how hot, cold, wet, or windy it might be!

Date:

Astronomy

Oct. 09, 2011 Rise Set
Actual Time 7:09 AM CDT 6:33 PM CDT
Civil Twilight 6:41 AM CDT 7:01 PM CDT
Nautical Twilight 6:09 AM CDT 7:32 PM CDT
Astronomical Twilight 5:38 AM CDT 8:04 PM CDT
Moon 5:11 PM CDT (10/9) 4:53 AM CDT (10/9)
Length of Visible Light 12h 19m
Length of Day
11h 24m
Waxing Gibbous, 95% of the Moon is Illuminated
Oct 9
Waxing Gibbous
Oct 11
Full
Oct 19
Last Quarter
Oct 26
New
Nov 2
First Quarter

Hourly Weather History & Observations

Time (CDT) Temp. Heat Index Dew Point Humidity Pressure Visibility Wind Dir Wind Speed Gust Speed Precip Events Conditions
12:53 AM 63.0 °F - 51.1 °F 65% 30.22 in 10.0 mi SSE 8.1 mph - N/A   Clear
1:53 AM 64.0 °F - 52.0 °F 65% 30.23 in 10.0 mi SSE 9.2 mph - N/A   Clear
2:53 AM 63.0 °F - 52.0 °F 67% 30.24 in 10.0 mi SSE 6.9 mph - N/A   Clear
3:53 AM 60.1 °F - 52.0 °F 75% 30.24 in 10.0 mi South 5.8 mph - N/A   Clear
4:53 AM 61.0 °F - 53.1 °F 75% 30.25 in 10.0 mi South 8.1 mph - N/A   Clear
5:53 AM 59.0 °F - 53.6 °F 82% 30.28 in 10.0 mi SSE 4.6 mph - N/A   Clear
6:53 AM 55.0 °F - 51.1 °F 86% 30.27 in 10.0 mi SE 3.5 mph - N/A   Clear
7:53 AM 57.9 °F - 53.1 °F 84% 30.29 in 10.0 mi South 3.5 mph - N/A   Clear
8:53 AM 64.0 °F - 54.0 °F 70% 30.29 in 10.0 mi SE 4.6 mph - N/A   Clear
9:53 AM 69.1 °F - 55.0 °F 61% 30.30 in 10.0 mi SSE 4.6 mph - N/A   Clear
10:53 AM 73.0 °F - 55.0 °F 53% 30.30 in 10.0 mi SSE 8.1 mph - N/A   Clear
11:53 AM 77.0 °F - 55.0 °F 47% 30.28 in 10.0 mi Variable 4.6 mph - N/A   Clear
12:53 PM 79.0 °F - 53.1 °F 40% 30.25 in 10.0 mi SSE 9.2 mph - N/A   Clear
1:53 PM 80.1 °F 79.9 °F 53.1 °F 39% 30.21 in 10.0 mi SE 9.2 mph 19.6 mph N/A   Clear
2:53 PM 81.0 °F - 51.1 °F 35% 30.18 in 10.0 mi SSE 10.4 mph - N/A   Clear
3:53 PM 80.1 °F - 50.0 °F 35% 30.17 in 10.0 mi ESE 11.5 mph 18.4 mph N/A   Clear
4:53 PM 80.1 °F - 50.0 °F 35% 30.17 in 10.0 mi SE 8.1 mph - N/A   Clear
5:53 PM 77.0 °F - 48.0 °F 36% 30.16 in 10.0 mi SE 6.9 mph - N/A   Clear
6:53 PM 73.0 °F - 46.9 °F 39% 30.16 in 10.0 mi ESE 4.6 mph - N/A   Clear
7:53 PM 69.1 °F - 46.0 °F 44% 30.16 in 10.0 mi ESE 5.8 mph - N/A   Clear
8:53 PM 66.9 °F - 45.0 °F 45% 30.16 in 10.0 mi ESE 4.6 mph - N/A   Clear
9:53 PM 64.0 °F - 45.0 °F 50% 30.17 in 10.0 mi ESE 4.6 mph - N/A   Clear
10:53 PM 62.1 °F - 46.0 °F 56% 30.17 in 10.0 mi SE 6.9 mph - N/A   Clear
11:53 PM 57.2 °F - 44.6 °F 63% 30.17 in 10.0 mi SSE 4.6 mph - N/A   Clear